Location: Fours
(44.3167°N, 6.7000°E)
Time: 00:58:26
(UTC+00:00)

Okean 1-7 Rocket - Pass Details

Date: 16 October 2021
Orbit: 617 x 648 km, 82.5° (Epoch: 02 December)

Event Time Altitude Azimuth Distance (km) Brightness Sun altitude
Rises 18:15:40 0° 356° (N) 2,902 7.1 -16.6°
Reaches altitude 10° 18:17:57 10° 1° (N) 1,993 6.2 -17.0°
Maximum altitude 18:22:15 51° 78° (ENE) 785 3.7 -17.7°
Enters shadow 18:24:36 25° 144° (SE) 1,272 4.8 -18.2°
